Preview of NWS' New Version of Forecast
This preview is not operational and should not be used for support decisions.

Regional Weather Roundup (RWR)

Issued by National Weather Service (NWS)

                            
000
ASUS46 KPQR 181710
RWROR 

OREGON REGIONAL WEATHER ROUNDUP
NATIONAL WEATHER SERVICE PORTLAND OR
1000 AM PDT THU APR 18 2019

NOTE: "FAIR" INDICATES FEW OR NO CLOUDS BELOW 12,000 FEET WITH
NO SIGNIFICANT WEATHER AND/OR OBSTRUCTIONS TO VISIBILITY.

ORZ001>013-181800-
NORTHWEST OREGON

  
CITY           SKY/WX    TMP DP  RH WIND       PRES   REMARKS
ASTORIA        CLOUDY    54  51  90 NE5       30.22F                  
TILLAMOOK      PTSUNNY   55  52  88 CALM      30.25S                  
NEWPORT        PTSUNNY   57  52  82 N5        30.27R HAZE             
PORTLAND       PTSUNNY   57  47  69 CALM      30.26F                  
VANCOUVER WA   PTSUNNY   55  46  71 CALM      30.26S                  
SCAPPOOSE      CLOUDY    58  48  69 CALM      30.25F                  
HILLSBORO      PTSUNNY   57  48  72 CALM      30.24F                  
AURORA         MOSUNNY   59  50  72 CALM      30.26F                  
MCMINNVILLE    MOSUNNY   57  49  74 CALM      30.25S                  
SALEM          SUNNY     59  50  72 CALM      30.24S                  
CORVALLIS      SUNNY     57  51  80 CALM      30.25F                  
EUGENE         PTSUNNY   59  52  77 S5        30.24F                  
$$

ORZ021-028-181800-
SOUTHWEST OREGON

  
CITY           SKY/WX    TMP DP  RH WIND       PRES   REMARKS
NORTH BEND     SUNNY     58  54  86 N5        30.23S                  
BROOKINGS      SUNNY     68  53  58 S5        30.17F                  
ROSEBURG       SUNNY     60  49  66 CALM      30.24F                  
SEXTON SUMMIT  SUNNY     60  45  57 E5        30.27F                  
GRANTS PASS    FAIR      57  46  67 CALM      30.28F                  
MEDFORD        SUNNY     57  45  64 CALM      30.26F                  
$$

ORZ014>016-041-181800-
COLUMBIA GORGE

  
CITY           SKY/WX    TMP DP  RH WIND       PRES   REMARKS
TROUTDALE      MOSUNNY   57  46  66 E8        30.25F                  
HOOD RIVER     PTSUNNY   55  41  58 MISG      30.26F                  
THE DALLES     SUNNY     57  45  64 N3        30.26S                  
$$

ORZ029>031-041-044-049-050-061>064-502-503-505>511-181800-
EASTERN OREGON

  
CITY           SKY/WX    TMP DP  RH WIND       PRES   REMARKS
MADRAS         SUNNY     54  43  66 CALM      30.29F                  
REDMOND        SUNNY     61  38  42 SE8       30.27F                  
BEND           SUNNY     61  37  41 SE7       30.28F                  
PRINEVILLE     MOSUNNY   57  39  51 CALM      30.29F                  
KLAMATH FALLS  SUNNY     56  42  59 CALM      30.32F                  
LAKEVIEW       SUNNY     56  42  59 VRB3      30.35S                  
HERMISTON      SUNNY     63  46  54 W5        30.24S                  
PENDLETON      MOSUNNY   60  43  53 SE6       30.24F                  
JOHN DAY       SUNNY     55  38  53 CALM      30.33R                  
MEACHAM        CLOUDY    57  41  55 CALM      30.29S                  
LA GRANDE      SUNNY     51  41  68 VRB3      30.32F                  
BAKER CITY     SUNNY     55  31  39 CALM      30.33F                  
BURNS          SUNNY     55  40  56 CALM      30.35F                  
ROME             N/A     59  41  51 S3        30.33F                  
ONTARIO        SUNNY     59  41  51 NE3       30.36F                  
$$